Weather reports worldwide

Advertisment
Westdorpe aws, Netherlands (6319): temperature & dewpoint: 17.10.2019 21:00:00 - 23.10.2019 21:00:00 (CEST)Westdorpe aws, Netherlands (6319): temperature 5cm: 17.10.2019 21:00:00 - 23.10.2019 21:00:00 (CEST)Westdorpe aws, Netherlands (6319): wind speed & gusts: 17.10.2019 21:00:00 - 23.10.2019 21:00:00 (CEST)Westdorpe aws, Netherlands (6319): wind direction: 17.10.2019 21:00:00 - 23.10.2019 21:00:00 (CEST)Westdorpe aws, Netherlands (6319): reduced air pressure: 17.10.2019 21:00:00 - 23.10.2019 21:00:00 (CEST)Westdorpe aws, Netherlands (6319): visibility: 17.10.2019 21:00:00 - 23.10.2019 21:00:00 (CEST)Westdorpe aws, Netherlands (6319): precipitation: 17.10.2019 21:00:00 - 23.10.2019 21:00:00 (CEST)
Date & Time tt [°C] td [°C] tt 5cm [°C] ff [km/h] ff [kn] fx [km/h] fx [kn] dd ppp [hPa] vv [km] rr [mm]
23.10.2019 21:00:00 13,9 12,4 13,1 4 2 - - ENE 1008,5 9 -
23.10.2019 20:00:00 13,2 12,2 12,6 4 2 7 4 E 1009,8 7 0,0
23.10.2019 19:00:00 14,0 12,6 13,4 4 2 11 6 W 1010,0 8 0,0
23.10.2019 18:00:00 15,7 12,3 15,0 7 4 18 10 E 1009,5 13 0,0
23.10.2019 17:00:00 16,4 12,6 16,3 7 4 18 10 E 1010,3 11 0,0
23.10.2019 16:00:00 16,4 12,3 16,1 14 8 22 12 ENE 1010,9 4,7 0,0
23.10.2019 15:00:00 16,6 11,8 18,2 11 6 18 10 E 1012,1 13 0,0
23.10.2019 14:00:00 15,5 11,9 15,7 11 6 14 8 NE 1013,0 11 0,0
23.10.2019 13:00:00 15,0 11,7 14,9 11 6 22 12 ENE 1013,7 10 0,0
23.10.2019 12:00:00 13,2 11,0 13,2 14 8 25 14 E 1014,9 8 0,0
23.10.2019 11:00:00 12,7 11,1 12,6 14 8 22 12 NE 1015,6 6 0,0
23.10.2019 10:00:00 11,8 10,6 11,4 14 8 18 10 ENE 1016,7 5 0,0
23.10.2019 09:00:00 11,4 10,3 11,0 11 6 18 10 ENE 1017,5 7 0,0
23.10.2019 08:00:00 11,1 10,3 10,8 7 4 14 8 NE 1018,1 3,7 0,0
23.10.2019 07:00:00 11,0 10,5 10,6 7 4 11 6 ENE 1018,7 3,4 0,0
23.10.2019 06:00:00 10,5 10,1 10,2 11 6 14 8 NE 1018,8 3,5 0,0
23.10.2019 05:00:00 10,1 9,5 9,7 7 4 14 8 NNE 1019,7 6 0,0
23.10.2019 04:00:00 9,7 9,4 9,5 7 4 11 6 NE 1020,3 5 0,0
23.10.2019 03:00:00 9,9 9,7 8,6 4 2 7 4 ESE 1021,3 4,8 0,0
23.10.2019 02:00:00 8,0 7,9 7,1 4 2 11 6 NE 1021,4 0,5 0,0
23.10.2019 01:00:00 5,9 5,6 4,8 7 4 7 4 NNE 1021,7 0,4 0,0
23.10.2019 00:00:00 6,4 6,1 4,8 4 2 7 4 ESE 1023,2 1,1 0,0
22.10.2019 23:00:00 7,2 7,0 4,8 0 0 4 2 N 1023,2 6 0,0
22.10.2019 22:00:00 7,6 7,5 5,3 0 0 4 2 N 1023,3 0,2 0,0
22.10.2019 21:00:00 8,9 8,5 5,9 4 2 4 2 ENE 1023,3 0,7 0,0
22.10.2019 20:00:00 9,6 9,2 6,7 0 0 7 4 N 1023,7 8 0,0
22.10.2019 19:00:00 11,2 10,4 8,7 4 2 7 4 E 1023,5 26 0,0
22.10.2019 18:00:00 13,1 10,7 12,7 7 4 11 6 NNW 1023,5 39 0,0
22.10.2019 17:00:00 14,6 11,0 14,3 4 2 7 4 NW 1023,6 29 0,0
22.10.2019 16:00:00 13,5 10,9 13,4 4 2 14 8 WNW 1024,0 33 0,0
22.10.2019 15:00:00 13,7 11,3 14,1 11 6 22 12 NW 1023,9 35 0,0
22.10.2019 14:00:00 15,2 11,3 16,8 14 8 22 12 SW 1024,5 33 0,0
22.10.2019 13:00:00 14,3 11,1 14,9 14 8 22 12 WSW 1024,7 25 0,0
22.10.2019 12:00:00 13,4 11,5 14,1 14 8 22 12 WSW 1024,6 11 0,0
22.10.2019 11:00:00 12,8 11,6 13,2 14 8 22 12 SW 1024,5 10 0,0
22.10.2019 10:00:00 12,8 11,7 12,6 14 8 22 12 SW 1024,3 10 0,0
22.10.2019 09:00:00 11,9 11,2 11,2 14 8 18 10 SW 1023,1 10 0,0
22.10.2019 08:00:00 12,0 11,4 11,5 11 6 22 12 SW 1022,4 8 0,0
22.10.2019 07:00:00 11,7 11,2 11,2 11 6 22 12 WSW 1021,7 10 0,0
22.10.2019 06:00:00 12,6 11,9 12,4 14 8 22 12 W 1021,1 7 0,0
22.10.2019 05:00:00 12,8 11,9 12,4 14 8 18 10 SW 1020,9 6 0,0
22.10.2019 04:00:00 12,7 11,9 12,4 11 6 18 10 SSW 1020,7 4,9 0,0
22.10.2019 03:00:00 12,5 11,8 12,2 11 6 18 10 S 1020,6 6 0,0
22.10.2019 02:00:00 12,2 11,5 11,9 7 4 14 8 S 1020,5 6 0,0
22.10.2019 01:00:00 11,4 11,0 10,1 4 2 14 8 S 1020,2 5 0,0
22.10.2019 00:00:00 10,6 10,2 8,0 4 2 14 8 SSW 1019,7 3,2 0,0
21.10.2019 23:00:00 11,8 11,1 11,0 7 4 14 8 S 1019,5 8 0,0
21.10.2019 22:00:00 12,0 11,2 11,5 7 4 11 6 SSE 1019,0 10 0,0
21.10.2019 21:00:00 12,2 11,3 12,0 11 6 14 8 S 1018,7 14 0,0
21.10.2019 20:00:00 12,3 11,2 12,0 11 6 14 8 SSE 1018,4 18 0,0
21.10.2019 19:00:00 12,2 11,1 12,0 7 4 14 8 SSE 1017,6 30 0,0
21.10.2019 18:00:00 12,5 10,8 12,4 11 6 18 10 SSE 1017,1 50 0,0
21.10.2019 17:00:00 12,9 10,5 12,8 11 6 22 12 S 1016,4 45 -
21.10.2019 16:00:00 13,1 10,0 13,2 11 6 22 12 S 1016,2 50 0,0
21.10.2019 15:00:00 13,0 10,4 13,2 11 6 25 14 S 1015,9 46 0,0
21.10.2019 14:00:00 12,7 10,7 12,8 14 8 29 16 S 1015,8 47 0,0
21.10.2019 13:00:00 12,6 11,4 12,6 11 6 22 12 S 1014,9 31 0,0
21.10.2019 12:00:00 13,0 11,4 12,8 11 6 18 10 S 1014,4 16 0,0
21.10.2019 11:00:00 12,9 11,6 12,8 11 6 14 8 S 1013,3 8 0,0
21.10.2019 10:00:00 12,2 11,5 12,1 11 6 25 14 ESE 1012,6 5 0,0
21.10.2019 09:00:00 11,4 10,9 11,4 7 4 14 8 ENE 1011,8 4,9 0,0
21.10.2019 08:00:00 11,1 10,7 11,1 7 4 18 10 ENE 1010,9 3,8 0,0
21.10.2019 07:00:00 11,0 10,5 10,9 14 8 25 14 E 1010,9 6 4,5
21.10.2019 06:00:00 11,0 10,2 10,9 11 6 32 18 ENE 1010,5 5 1,7
21.10.2019 05:00:00 11,0 10,2 10,8 22 12 32 18 NE 1010,0 6 1,8
21.10.2019 04:00:00 10,9 10,1 10,8 18 10 32 18 NE 1010,4 9 0,0
21.10.2019 03:00:00 10,8 9,9 10,7 22 12 32 18 NE 1010,6 7 0,2
21.10.2019 02:00:00 11,4 9,0 11,2 25 14 36 19 NE 1010,5 33 0,0
21.10.2019 01:00:00 11,8 10,4 11,5 14 8 29 16 NNE 1010,6 5 0,0
21.10.2019 00:00:00 12,0 10,6 11,7 14 8 22 12 NE 1010,6 8 0,0
20.10.2019 23:00:00 11,8 10,5 11,6 7 4 14 8 NE 1010,6 11 0,0
20.10.2019 22:00:00 11,8 10,3 11,4 11 6 14 8 NNE 1009,8 15 0,0
20.10.2019 21:00:00 11,4 10,3 11,2 7 4 11 6 NNE 1010,0 12 0,0
20.10.2019 20:00:00 11,9 10,6 11,6 7 4 14 8 NE 1009,9 13 0,0
20.10.2019 19:00:00 12,5 10,8 12,2 7 4 14 8 NE 1009,7 14 0,0
20.10.2019 18:00:00 13,1 10,8 13,0 11 6 18 10 NE 1009,2 18 0,0
20.10.2019 17:00:00 13,6 11,0 13,6 11 6 18 10 NE 1008,7 25 0,0
20.10.2019 16:00:00 13,7 10,5 13,9 14 8 18 10 NE 1008,5 24 0,0
20.10.2019 15:00:00 13,3 11,3 13,3 11 6 18 10 NE 1008,6 16 0,0
20.10.2019 14:00:00 12,5 10,9 12,6 7 4 11 6 NNE 1008,9 10 0,0
20.10.2019 13:00:00 12,2 10,8 12,1 4 2 7 4 NNE 1008,3 11 0,0
20.10.2019 12:00:00 11,6 10,4 11,9 4 2 7 4 N 1008,4 8 0,0
20.10.2019 11:00:00 10,7 10,0 10,8 4 2 11 6 SE 1008,6 6 0,0
20.10.2019 10:00:00 9,8 9,5 9,8 0 0 4 2 N 1007,9 3,6 0,0
20.10.2019 09:00:00 8,8 8,4 8,4 4 2 7 4 ESE 1007,4 3,4 0,0
20.10.2019 08:00:00 8,6 8,3 8,0 0 0 7 4 N 1007,2 3,7 0,0
20.10.2019 07:00:00 9,0 8,5 8,2 4 2 11 6 S 1007,4 6 0,0
20.10.2019 06:00:00 8,4 8,1 6,6 4 2 7 4 SSE 1006,8 4,1 0,0
20.10.2019 05:00:00 9,4 8,6 7,7 4 2 7 4 SSE 1006,6 11 0,0
20.10.2019 04:00:00 9,9 9,1 8,9 7 4 11 6 S 1006,4 16 0,0
20.10.2019 03:00:00 9,4 8,7 7,5 6 3 - - SSE 1006,5 10 -
20.10.2019 02:00:00 10,1 8,8 9,0 7 4 14 8 S 1006,5 25 0,0
20.10.2019 01:00:00 10,3 8,8 9,5 11 6 14 8 S 1006,5 31 0,0
20.10.2019 00:00:00 10,6 8,8 9,8 11 6 18 10 S 1006,4 36 0,0
19.10.2019 23:00:00 10,6 8,8 9,6 11 6 14 8 S 1005,8 41 0,0
19.10.2019 22:00:00 10,8 8,8 9,6 11 6 18 10 S 1005,4 47 0,0
19.10.2019 21:00:00 11,5 9,0 10,3 11 6 18 10 S 1005,0 41 0,0
19.10.2019 20:00:00 11,8 9,2 10,6 11 6 18 10 S 1004,7 48 0,0
19.10.2019 19:00:00 12,4 9,1 10,9 11 6 25 14 S 1004,3 42 0,0
19.10.2019 18:00:00 13,4 9,6 13,0 18 10 29 16 S 1003,9 41 0,0
19.10.2019 17:00:00 13,8 9,5 13,5 18 10 29 16 S 1003,7 43 0,0
19.10.2019 16:00:00 13,9 9,6 13,9 14 8 25 14 S 1003,3 47 0,0
19.10.2019 15:00:00 14,2 9,9 14,1 14 8 32 18 SSW 1003,4 37 0,0
19.10.2019 14:00:00 13,7 9,6 13,8 18 10 36 19 SW 1003,2 42 0,0
19.10.2019 13:00:00 13,6 9,6 14,1 18 10 40 21 SW 1003,3 36 0,0
19.10.2019 12:00:00 13,3 10,1 13,6 14 8 22 12 SSW 1003,2 21 0,0
19.10.2019 11:00:00 12,4 9,9 12,5 14 8 22 12 S 1003,1 38 0,0
19.10.2019 10:00:00 11,9 10,5 11,7 14 8 22 12 S 1003,0 34 0,0
19.10.2019 09:00:00 11,9 10,7 11,5 14 8 22 12 S 1002,9 26 0,0
19.10.2019 08:00:00 11,6 10,8 11,2 11 6 25 14 S 1002,4 19 0,4
19.10.2019 07:00:00 11,6 10,7 11,3 11 6 29 16 S 1002,6 13 0,3
19.10.2019 06:00:00 11,6 10,4 11,3 14 8 25 14 S 1002,9 18 0,1
19.10.2019 05:00:00 12,1 10,0 11,6 22 12 29 16 S 1003,2 19 0,0
19.10.2019 04:00:00 12,6 9,1 12,0 18 10 29 16 S 1003,4 37 0,0
19.10.2019 03:00:00 12,3 8,6 11,6 14 8 25 14 S 1003,5 29 0,0
19.10.2019 02:00:00 12,1 7,9 11,2 14 8 29 16 S 1004,0 35 0,0
19.10.2019 01:00:00 11,8 7,6 10,7 14 8 25 14 S 1004,4 34 0,0
19.10.2019 00:00:00 11,5 7,3 10,6 11 6 25 14 S 1004,7 35 0,0
18.10.2019 23:00:00 11,9 7,0 10,8 18 10 32 18 S 1005,1 38 0,0
18.10.2019 22:00:00 12,2 7,1 11,1 18 10 29 16 S 1005,6 37 0,0
18.10.2019 21:00:00 12,2 7,3 11,2 14 8 32 18 S 1005,8 41 0,0
18.10.2019 20:00:00 12,6 7,5 11,1 18 10 32 18 S 1005,9 44 0,0
18.10.2019 19:00:00 12,8 7,8 11,5 18 10 40 21 S 1005,7 38 0,0
18.10.2019 18:00:00 12,9 8,8 11,9 18 10 29 16 S 1005,7 32 0,0
18.10.2019 17:00:00 12,5 9,0 13,0 11 6 36 19 S 1005,7 13 0,0
18.10.2019 16:00:00 11,0 7,9 10,4 29 16 61 33 SW 1005,5 22 1,1
18.10.2019 15:00:00 13,3 7,8 13,1 43 23 61 33 SW 1004,8 44 0,0
18.10.2019 14:00:00 13,0 7,9 13,3 32 18 54 29 SW 1004,5 41 0,0
18.10.2019 13:00:00 14,0 8,6 13,9 36 19 58 31 SW 1003,7 31 0,0
18.10.2019 12:00:00 13,3 8,2 13,2 43 23 61 33 SW 1002,8 40 0,0
18.10.2019 11:00:00 12,8 7,0 12,6 40 21 65 35 SW 1001,9 46 0,0
18.10.2019 10:00:00 13,5 10,4 13,1 29 16 47 25 S 1001,3 45 0,0
18.10.2019 09:00:00 13,2 11,2 12,8 22 12 36 19 S 1001,7 37 0,0
18.10.2019 08:00:00 13,6 11,0 12,6 18 10 32 18 S 1002,2 47 0,0
18.10.2019 07:00:00 12,9 11,0 12,1 14 8 25 14 S 1003,0 49 0,0
18.10.2019 06:00:00 13,1 10,9 12,2 18 10 29 16 S 1003,7 47 0,0
18.10.2019 05:00:00 13,4 11,6 12,8 18 10 29 16 S 1004,5 38 0,0
18.10.2019 04:00:00 13,5 12,0 12,9 14 8 25 14 S 1005,2 37 0,0
18.10.2019 03:00:00 13,2 11,6 12,7 11 6 25 14 S 1006,0 50 0,0
18.10.2019 02:00:00 13,5 11,7 12,9 11 6 25 14 S 1006,4 41 0,0
18.10.2019 01:00:00 13,3 11,9 12,6 14 8 25 14 S 1006,8 22 0,0
18.10.2019 00:00:00 13,4 11,8 12,8 14 8 22 12 S 1007,1 28 0,0
17.10.2019 23:00:00 12,5 11,1 11,9 11 6 22 12 S 1007,8 34 0,0
17.10.2019 22:00:00 12,1 9,7 10,4 11 6 14 8 S 1007,8 45 0,0
17.10.2019 21:00:00 11,8 9,3 9,7 7 4 11 6 SSE 1008,4 45 0,0

tt = temperature
td = dewpoint
tt 5cm = temperature 5cm
ff = wind speed
fx = gusts
dd = wind direction
ppp = reduced air pressure
vv = visibility
rr = precipitation

Next stations